Location: Rancho Penasquitos
(32.9595°N, 117.1153°W)
Time: 02:18:41
(UTC+00:00)

Meteor 1-18 Rocket - Pass Details

Date: 29 June 2022
Orbit: 838 x 908 km, 81.2° (Epoch: 07 August)

Event Time Altitude Azimuth Distance (km) Brightness Sun altitude
Rises 11:57:48 0° 352° (N) 3,478 7.8 -8.9°
Reaches altitude 10° 12:00:14 10° 352° (N) 2,546 7.1 -8.4°
Maximum altitude 12:06:03 88° 80° (E) 899 4.4 -7.4°
Drops below altitude 10° 12:11:56 10° 173° (S) 2,570 6.5 -6.4°
Sets 12:14:24 0° 173° (S) 3,513 7.2 -6.0°
